EN

Hourly Weather Lahovka

Today, 26 July, Monday

Time Temperature Precipitation Wind Pressure Humidity
00:00 +19°C° 0 mm 2 mps 752 mmHg 76%
01:00 +18°C° 0 mm 2 mps 752 mmHg 78%
02:00 +18°C° 0 mm 2 mps 752 mmHg 79%
03:00 +18°C° 0 mm 2 mps 752 mmHg 80%
04:00 +18°C° 0 mm 2 mps 752 mmHg 80%
05:00 +18°C° 0 mm 2 mps 752 mmHg 81%
06:00 +19°C° 0 mm 2 mps 752 mmHg 75%
07:00 +21°C° 0 mm 3 mps 752 mmHg 69%
08:00 +25°C° 0 mm 3 mps 753 mmHg 58%
09:00 +26°C° 0 mm 3 mps 753 mmHg 52%
10:00 +28°C° 0 mm 4 mps 753 mmHg 45%
11:00 +30°C° 0 mm 4 mps 753 mmHg 39%
12:00 +30°C° 0 mm 4 mps 752 mmHg 37%
13:00 +32°C° 0 mm 4 mps 752 mmHg 34%
14:00 +33°C° 0 mm 4 mps 752 mmHg 32%
15:00 +32°C° 0 mm 4 mps 751 mmHg 37%
16:00 +29°C° 0 mm 4 mps 751 mmHg 41%
17:00 +28°C° 0 mm 3 mps 751 mmHg 46%
18:00 +27°C° 0 mm 3 mps 751 mmHg 50%
19:00 +26°C° 0 mm 3 mps 751 mmHg 55%
20:00 +25°C° 0 mm 4 mps 751 mmHg 59%
21:00 +23°C° 0.2 mm 4 mps 751 mmHg 65%
22:00 +22°C° 0.2 mm 4 mps 751 mmHg 70%
23:00 +22°C° 0.2 mm 4 mps 751 mmHg 76%

Tomorrow, 27 July, Tuesday

Time Temperature Precipitation Wind Pressure Humidity
00:00 +21°C° 0 mm 3 mps 751 mmHg 78%
01:00 +20°C° 0 mm 3 mps 751 mmHg 80%
02:00 +20°C° 0 mm 3 mps 751 mmHg 82%
03:00 +19°C° 0 mm 3 mps 751 mmHg 82%
04:00 +19°C° 0 mm 3 mps 751 mmHg 81%
05:00 +19°C° 0 mm 3 mps 751 mmHg 80%
06:00 +21°C° 0 mm 4 mps 750 mmHg 72%
07:00 +23°C° 0 mm 5 mps 750 mmHg 64%
08:00 +25°C° 0 mm 5 mps 750 mmHg 56%
09:00 +26°C° 0.1 mm 5 mps 750 mmHg 55%
10:00 +27°C° 0.1 mm 5 mps 750 mmHg 54%
11:00 +28°C° 0.1 mm 6 mps 750 mmHg 53%
12:00 +28°C° 0.1 mm 6 mps 750 mmHg 56%
13:00 +27°C° 0.1 mm 6 mps 750 mmHg 59%
14:00 +27°C° 0.1 mm 5 mps 749 mmHg 62%
15:00 +28°C° 0.4 mm 5 mps 749 mmHg 62%
16:00 +28°C° 0.4 mm 5 mps 748 mmHg 63%
17:00 +29°C° 0.4 mm 4 mps 747 mmHg 64%
18:00 +26°C° 5.4 mm 4 mps 747 mmHg 74%
19:00 +24°C° 5.4 mm 3 mps 747 mmHg 83%
20:00 +20°C° 5.4 mm 3 mps 748 mmHg 92%
21:00 +20°C° 1.3 mm 3 mps 748 mmHg 94%
22:00 +20°C° 1.3 mm 4 mps 748 mmHg 95%
23:00 +20°C° 1.3 mm 4 mps 749 mmHg 96%

Day after tomorrow, 28 July, Wednesday

Time Temperature Precipitation Wind Pressure Humidity
00:00 +20°C° 0.1 mm 4 mps 748 mmHg 96%
01:00 +20°C° 0.1 mm 3 mps 748 mmHg 97%
02:00 +19°C° 0.1 mm 3 mps 748 mmHg 97%
03:00 +19°C° 0 mm 3 mps 748 mmHg 96%
04:00 +19°C° 0 mm 2 mps 748 mmHg 96%
05:00 +18°C° 0 mm 2 mps 748 mmHg 96%
06:00 +20°C° 0 mm 2 mps 748 mmHg 90%
07:00 +21°C° 0 mm 2 mps 748 mmHg 85%
08:00 +24°C° 0 mm 2 mps 749 mmHg 79%
09:00 +25°C° 0 mm 2 mps 749 mmHg 71%
10:00 +27°C° 0 mm 2 mps 749 mmHg 63%
11:00 +29°C° 0 mm 2 mps 749 mmHg 55%
12:00 +30°C° 0 mm 2 mps 748 mmHg 52%
13:00 +30°C° 0 mm 2 mps 748 mmHg 48%
14:00 +31°C° 0 mm 2 mps 748 mmHg 45%
15:00 +31°C° 0 mm 2 mps 747 mmHg 45%
16:00 +31°C° 0 mm 1 mps 747 mmHg 46%
17:00 +31°C° 0 mm 1 mps 747 mmHg 46%
18:00 +29°C° 0 mm 1 mps 747 mmHg 53%
19:00 +27°C° 0 mm 1 mps 746 mmHg 60%
20:00 +25°C° 0 mm 1 mps 746 mmHg 67%
21:00 +24°C° 0 mm 1 mps 746 mmHg 71%
22:00 +23°C° 0 mm 2 mps 746 mmHg 74%
23:00 +23°C° 0 mm 2 mps 746 mmHg 78%

29 July, Thursday

Time Temperature Precipitation Wind Pressure Humidity
00:00 +21°C° 0.7 mm 2 mps 746 mmHg 82%
01:00 +22°C° 0.7 mm 1 mps 746 mmHg 86%
02:00 +21°C° 0.7 mm 1 mps 746 mmHg 90%
03:00 +21°C° 0.6 mm 1 mps 746 mmHg 91%
04:00 +20°C° 0.6 mm 1 mps 745 mmHg 93%
05:00 +20°C° 0.6 mm 1 mps 745 mmHg 94%
06:00 +21°C° 0.5 mm 1 mps 745 mmHg 91%
07:00 +22°C° 0.5 mm 1 mps 745 mmHg 88%
08:00 +23°C° 0.5 mm 1 mps 745 mmHg 85%
09:00 +25°C° 0 mm 1 mps 745 mmHg 79%
10:00 +26°C° 0 mm 2 mps 746 mmHg 73%
11:00 +27°C° 0 mm 2 mps 746 mmHg 67%
12:00 +27°C° 0.2 mm 3 mps 746 mmHg 66%
13:00 +28°C° 0.2 mm 4 mps 746 mmHg 64%
14:00 +28°C° 0.2 mm 4 mps 746 mmHg 63%
15:00 +27°C° 0.2 mm 4 mps 746 mmHg 66%
16:00 +27°C° 0.2 mm 4 mps 746 mmHg 68%
17:00 +26°C° 0.2 mm 4 mps 746 mmHg 70%
18:00 +25°C° 0.1 mm 3 mps 746 mmHg 75%
19:00 +24°C° 0.1 mm 2 mps 746 mmHg 80%
20:00 +21°C° 0.1 mm 2 mps 746 mmHg 85%
21:00 +21°C° 0 mm 2 mps 746 mmHg 86%
22:00 +20°C° 0 mm 2 mps 747 mmHg 87%
23:00 +19°C° 0 mm 2 mps 747 mmHg 89%

30 July, Friday

Time Temperature Precipitation Wind Pressure Humidity
00:00 +19°C° 0 mm 2 mps 747 mmHg 87%
01:00 +18°C° 0 mm 2 mps 747 mmHg 86%
02:00 +18°C° 0 mm 2 mps 747 mmHg 85%
03:00 +18°C° 0 mm 2 mps 747 mmHg 83%
04:00 +19°C° 0 mm 2 mps 747 mmHg 80%
05:00 +19°C° 0 mm 2 mps 747 mmHg 77%
06:00 +20°C° 0 mm 2 mps 747 mmHg 73%
07:00 +22°C° 0 mm 3 mps 747 mmHg 69%
08:00 +24°C° 0 mm 3 mps 747 mmHg 65%
09:00 +26°C° 0 mm 3 mps 747 mmHg 58%
10:00 +27°C° 0 mm 4 mps 747 mmHg 51%
11:00 +29°C° 0 mm 4 mps 747 mmHg 44%
12:00 +30°C° 0 mm 5 mps 746 mmHg 42%
13:00 +30°C° 0 mm 5 mps 746 mmHg 39%
14:00 +32°C° 0 mm 5 mps 746 mmHg 36%
15:00 +30°C° 0 mm 4 mps 746 mmHg 40%
16:00 +30°C° 0 mm 4 mps 745 mmHg 43%
17:00 +29°C° 0 mm 4 mps 745 mmHg 47%
18:00 +27°C° 0.3 mm 4 mps 745 mmHg 59%
19:00 +23°C° 0.3 mm 4 mps 745 mmHg 70%
20:00 +20°C° 0.3 mm 5 mps 746 mmHg 82%
21:00 +20°C° 0.1 mm 4 mps 745 mmHg 85%
22:00 +19°C° 0.1 mm 3 mps 745 mmHg 88%
23:00 +18°C° 0.1 mm 2 mps 745 mmHg 91%

31 July, Saturday

Time Temperature Precipitation Wind Pressure Humidity
00:00 +18°C° 0.5 mm 2 mps 745 mmHg 93%
01:00 +18°C° 0.5 mm 2 mps 745 mmHg 94%
02:00 +18°C° 0.5 mm 2 mps 745 mmHg 96%
03:00 +18°C° 0.3 mm 2 mps 745 mmHg 96%
04:00 +18°C° 0.3 mm 2 mps 744 mmHg 96%
05:00 +19°C° 0.3 mm 1 mps 744 mmHg 97%
06:00 +20°C° 0 mm 1 mps 744 mmHg 93%
07:00 +22°C° 0 mm 1 mps 744 mmHg 90%
08:00 +23°C° 0 mm 1 mps 744 mmHg 86%
09:00 +25°C° 0 mm 1 mps 744 mmHg 78%
10:00 +24°C° 0 mm 0 mps 744 mmHg 70%
11:00 +26°C° 0 mm 0 mps 744 mmHg 62%
12:00 +28°C° 0 mm 1 mps 744 mmHg 58%
13:00 +29°C° 0 mm 1 mps 744 mmHg 54%
14:00 +30°C° 0 mm 1 mps 743 mmHg 50%
15:00 +28°C° 0.2 mm 2 mps 743 mmHg 58%
16:00 +26°C° 0.2 mm 2 mps 743 mmHg 66%
17:00 +24°C° 0.2 mm 3 mps 742 mmHg 74%
18:00 +24°C° 0.1 mm 3 mps 742 mmHg 77%
19:00 +23°C° 0.1 mm 2 mps 743 mmHg 80%
20:00 +21°C° 0.1 mm 2 mps 743 mmHg 83%
21:00 +21°C° 0 mm 2 mps 743 mmHg 86%
22:00 +20°C° 0 mm 2 mps 743 mmHg 89%
23:00 +19°C° 0 mm 2 mps 743 mmHg 92%
Show more